Wind_Speed
26 28 31 34 36 38 39 39 38 38 39 38 38 37 36 34 33 32 31 30 30 30 29 29 29 29 29 30 31 32 33 35 36 37 38 39 39 40 40 40 41 41
30 32 35 37 38 38 37 37 37 38 38 38 37 36 35 33 32 31 31 30 30 30 30 30 29 29 29 29 29 29 30 31 32 33 35 36 37 39 39 40 41 41
34 36 37 37 37 37 37 37 37 37 37 37 36 36 35 34 34 33 32 31 31 32 31 31 30 30 30 30 30 30 30 30 30 30 31 32 34 35 36 38 39 41
37 38 38 38 38 38 39 39 39 38 37 36 36 35 35 34 34 33 32 32 32 32 32 32 31 31 31 31 32 32 32 32 32 32 33 33 34 34 35 36 37 38
38 38 38 39 39 40 40 40 40 39 39 38 37 36 35 34 33 33 33 33 33 32 32 32 32 32 32 33 33 34 34 35 36 36 36 36 37 38 38 38 39 39
38 38 38 39 39 39 40 40 40 39 38 38 37 35 34 34 33 33 33 33 32 32 32 32 32 33 34 34 35 36 36 37 38 38 39 40 40 40 41 41 41 41
37 37 37 38 39 39 40 39 39 39 38 37 35 34 33 33 33 32 32 32 32 32 33 33 34 35 35 36 37 38 39 39 40 40 41 41 41 42 42 42 42 42
36 36 37 38 39 39 39 39 39 38 37 36 34 33 33 32 32 32 31 32 32 33 34 35 36 37 38 39 40 41 41 42 42 42 42 43 43 43 43 43 43 43
35 36 37 37 38 38 38 38 38 37 35 34 33 33 32 31 31 31 32 32 34 35 36 38 39 40 41 42 42 43 43 44 44 44 44 44 44 44 44 44 44 45
35 36 37 37 37 37 37 36 35 34 33 32 32 32 31 31 31 32 33 35 36 38 39 40 41 42 43 43 44 44 44 45 45 45 45 45 45 45 45 46 46 46
36 37 37 37 37 36 35 34 33 32 31 31 31 31 31 32 33 34 36 38 39 40 41 42 43 43 44 44 44 44 44 44 44 44 45 45 45 46 47 47 48 48
37 37 37 36 35 34 33 32 31 31 31 31 31 31 32 34 36 38 40 41 42 43 43 43 43 44 44 44 44 44 44 44 44 44 45 45 46 46 47 48 49 49
37 36 35 34 33 32 31 31 31 31 31 31 32 33 35 37 40 41 42 43 43 44 44 43 43 43 43 43 43 44 44 44 44 45 45 46 46 46 47 48 49 49
36 35 34 32 31 31 31 31 31 32 32 32 34 36 38 40 42 42 43 43 43 43 42 42 42 42 42 43 43 44 44 44 44 45 45 45 46 46 47 48 48 49
35 33 32 31 30 30 31 32 32 33 34 35 36 39 40 41 42 42 42 42 42 41 41 41 41 42 42 43 43 43 43 44 44 44 45 45 46 46 47 47 48 49
33 31 30 29 30 30 32 33 34 35 37 38 40 40 40 40 40 41 41 41 41 41 40 40 40 41 41 42 42 43 43 44 44 44 45 45 46 46 47 48 48 49
31 29 28 29 30 31 33 34 36 38 40 41 41 40 39 39 39 40 41 40 40 39 39 39 39 40 41 42 42 43 43 44 44 44 45 46 46 47 47 48 48 49
30 29 29 29 31 33 35 37 39 41 41 41 40 39 38 38 39 40 40 39 38 38 38 38 39 40 41 41 42 43 44 44 45 45 45 46 46 47 47 48 49 49
30 29 30 31 33 35 38 40 41 41 40 39 39 38 38 39 39 39 38 37 37 37 37 38 39 40 40 41 42 43 44 45 45 45 45 46 46 47 47 48 50 51
30 31 32 34 36 38 40 41 41 40 39 38 38 38 38 38 38 37 36 36 36 37 38 38 39 41 41 42 43 44 45 45 45 45 45 45 46 47 48 49 51 52
32 34 36 38 39 40 40 40 39 39 38 38 39 39 38 38 37 36 36 36 37 38 39 40 41 42 43 43 44 44 44 44 45 45 45 46 46 48 49 50 52 54
35 37 38 39 40 39 39 39 38 38 38 39 39 39 38 37 36 36 36 37 38 39 40 41 42 42 43 43 43 43 43 44 44 45 46 46 47 49 50 52 53 55
37 38 39 39 38 38 38 38 38 38 39 39 39 38 37 37 36 36 37 38 39 40 41 42 42 42 42 41 41 42 43 44 45 46 47 48 49 50 52 53 54 56
37 37 37 37 37 37 37 37 38 38 39 39 38 38 38 37 37 37 38 39 40 41 41 41 40 40 39 39 40 41 43 44 45 46 48 49 51 52 53 54 54 55
36 36 35 35 35 36 36 37 37 38 38 38 38 38 38 37 37 38 38 39 40 40 39 39 38 37 38 39 40 42 44 45 47 48 49 51 52 53 53 54 55 55
34 34 35 35 35 35 35 36 36 37 37 38 39 39 39 38 38 39 39 39 39 38 37 36 36 36 37 39 41 43 45 47 49 50 51 52 53 54 54 55 55 55
Wind_Direction
279 285 290 296 300 302 304 305 306 306 306 305 305 304 304 303 303 301 299 297 296 294 293 291 288 285 282 279 277 276 275 274 275 276 277 278 279 280 281 282 282 282
287 292 296 299 301 302 303 303 304 304 303 304 304 304 305 305 304 303 302 301 300 299 298 297 295 293 291 289 287 285 283 280 278 278 277 277 278 279 280 281 282 282
293 296 299 301 302 303 303 303 304 304 304 305 306 307 307 308 308 307 307 306 306 305 304 302 301 299 298 297 295 294 292 290 288 286 284 283 282 281 281 281 281 282
296 298 301 303 304 305 306 308 309 310 310 310 310 309 309 309 308 308 307 306 305 304 303 302 300 299 298 297 296 295 294 293 292 291 290 289 288 286 285 284 282 281
298 301 303 305 306 307 309 310 310 310 310 310 309 309 308 308 307 306 305 304 304 303 301 300 300 299 298 297 296 295 295 295 294 294 294 293 293 292 291 290 288 287
301 304 305 305 306 307 307 308 307 307 307 306 306 306 306 305 305 304 303 303 302 301 300 300 299 298 297 296 296 295 295 294 294 295 295 295 295 295 294 294 293 292
302 303 303 304 305 306 306 306 305 305 304 304 303 303 303 303 303 302 301 301 300 299 299 298 298 297 296 296 295 295 294 294 293 293 293 293 294 294 294 294 293 293
299 301 302 303 303 303 303 302 302 301 300 301 301 301 301 301 301 300 299 298 298 297 297 297 297 297 296 296 295 294 294 293 293 293 292 292 292 292 292 292 292 292
299 301 302 302 302 300 299 298 298 297 298 298 299 300 300 300 299 298 297 297 297 297 297 297 297 296 295 295 294 293 293 292 292 292 292 292 292 292 292 292 292 292
300 301 301 300 299 298 297 296 295 296 297 298 299 299 299 299 298 297 297 297 297 297 297 296 295 294 293 292 292 291 291 291 291 292 292 293 293 293 293 294 294 294
298 299 298 297 296 295 295 294 293 294 296 297 298 298 298 297 297 297 297 297 297 296 295 294 294 293 292 292 292 291 291 292 292 292 293 294 294 295 295 295 295 295
295 295 294 294 293 291 291 290 291 292 294 296 296 297 296 296 297 297 297 297 297 296 295 295 294 294 294 293 293 294 294 294 294 295 295 295 295 296 296 296 296 296
291 291 291 290 289 288 287 288 289 291 293 294 295 295 296 296 297 297 297 297 297 296 296 296 296 296 295 295 296 296 296 296 296 296 296 296 296 296 296 296 295 296
289 289 288 287 286 285 286 287 289 290 292 293 294 295 296 296 296 296 296 296 296 296 296 296 296 296 296 296 296 296 296 296 296 296 296 296 296 295 295 295 295 295
287 287 286 284 283 283 284 286 288 289 291 292 294 295 296 296 296 295 295 295 295 295 295 296 296 296 296 297 296 296 296 296 296 296 296 296 296 296 296 296 296 296
286 285 283 281 281 281 282 284 286 288 291 293 295 296 295 294 294 293 293 293 294 295 296 297 297 297 298 298 298 297 297 297 297 296 296 296 296 296 296 296 296 296
284 282 280 279 279 280 281 283 286 289 292 294 295 295 294 292 291 292 292 294 295 296 297 298 299 299 299 299 298 299 298 298 298 298 297 297 297 297 297 297 297 297
282 280 279 279 279 280 282 285 288 291 293 294 294 294 292 291 291 292 294 296 297 298 299 300 300 300 300 300 300 299 299 298 298 298 298 298 298 298 298 298 298 299
280 280 279 278 279 281 284 287 289 291 292 293 293 292 292 292 292 294 296 298 299 300 301 301 301 301 301 301 300 299 299 298 298 298 298 299 299 299 300 300 301 301
280 280 279 280 282 284 286 288 289 290 291 291 292 292 292 292 293 295 298 299 300 301 302 302 302 301 300 300 299 298 298 297 298 298 299 299 300 300 301 301 302 302
279 280 282 283 285 286 286 287 288 289 290 290 291 291 291 292 294 296 299 300 300 301 302 302 301 300 299 298 298 297 296 297 297 298 299 300 300 301 302 302 303 304
280 282 283 284 285 285 285 286 287 288 288 289 289 290 291 292 294 297 298 299 300 300 300 300 299 298 297 297 296 296 296 297 298 299 300 301 301 302 303 303 305 305
282 282 283 283 283 283 284 285 285 286 286 287 288 289 290 292 294 296 297 298 299 299 299 298 298 297 297 296 296 296 297 298 299 300 301 302 303 303 304 305 305 306
280 280 280 280 280 281 282 282 283 284 285 286 287 289 290 292 294 296 296 297 298 298 298 298 298 297 297 296 297 298 299 300 301 301 302 303 303 304 304 305 306 307
277 277 277 277 278 278 279 280 281 283 284 286 288 289 291 293 294 295 296 297 297 298 299 299 299 298 297 297 298 299 300 301 302 302 303 303 303 304 305 305 306 307
277 276 276 276 277 277 278 280 281 283 285 287 289 290 291 292 293 294 295 296 297 298 299 298 298 297 297 297 299 300 301 302 302 303 303 303 304 304 305 305 306 306
Height
3126 3125 3124 3124 3123 3122 3121 3120 3119 3118 3116 3115 3114 3114 3113 3112 3111 3110 3109 3108 3107 3105 3104 3103 3103 3102 3101 3101 3100 3099 3098 3097 3095 3094 3093 3092 3090 3089 3087 3086 3085 3084
3123 3122 3121 3120 3119 3118 3117 3115 3114 3113 3111 3110 3109 3108 3107 3106 3105 3103 3102 3102 3100 3099 3098 3097 3096 3096 3095 3094 3093 3093 3092 3091 3090 3089 3088 3087 3085 3084 3083 3081 3080 3079
3118 3117 3116 3115 3114 3113 3111 3110 3108 3107 3106 3104 3103 3102 3100 3099 3098 3097 3096 3095 3094 3093 3092 3091 3091 3090 3089 3088 3087 3086 3086 3085 3084 3083 3082 3081 3080 3079 3078 3076 3075 3074
3114 3113 3111 3109 3108 3107 3105 3103 3101 3100 3098 3097 3096 3095 3094 3094 3093 3092 3091 3090 3089 3088 3087 3087 3086 3085 3084 3083 3083 3081 3081 3080 3079 3078 3077 3075 3075 3074 3072 3071 3070 3069
3109 3107 3105 3104 3102 3101 3099 3097 3095 3094 3093 3092 3091 3091 3090 3089 3089 3088 3087 3086 3085 3084 3083 3082 3082 3081 3080 3079 3078 3077 3076 3075 3074 3073 3071 3070 3069 3067 3066 3065 3064 3063
3103 3101 3100 3099 3097 3096 3094 3093 3092 3091 3090 3089 3088 3087 3086 3085 3085 3084 3083 3082 3081 3080 3079 3078 3077 3076 3075 3074 3073 3072 3071 3070 3069 3067 3066 3065 3063 3062 3060 3059 3058 3057
3098 3097 3096 3095 3093 3092 3090 3089 3088 3087 3086 3085 3084 3083 3082 3082 3081 3080 3079 3078 3077 3076 3075 3074 3073 3072 3070 3069 3068 3067 3066 3065 3064 3062 3061 3060 3058 3057 3055 3054 3052 3051
3095 3093 3092 3090 3089 3088 3087 3086 3085 3083 3082 3081 3081 3080 3079 3078 3077 3076 3075 3074 3073 3072 3071 3070 3068 3067 3066 3064 3063 3062 3061 3059 3058 3057 3055 3054 3053 3051 3050 3048 3047 3046
3090 3089 3088 3086 3085 3084 3083 3082 3081 3080 3079 3078 3077 3076 3075 3074 3073 3072 3071 3070 3069 3068 3067 3065 3064 3062 3061 3059 3058 3056 3055 3054 3052 3051 3049 3048 3047 3045 3044 3043 3041 3040
3086 3085 3084 3082 3081 3080 3079 3078 3076 3075 3074 3073 3073 3071 3070 3069 3068 3068 3067 3066 3065 3063 3062 3061 3059 3057 3056 3054 3053 3051 3050 3048 3047 3046 3044 3042 3041 3039 3038 3036 3034 3033
3081 3081 3080 3078 3077 3075 3074 3073 3072 3071 3070 3069 3068 3067 3066 3065 3064 3063 3062 3061 3060 3058 3057 3055 3054 3052 3050 3049 3047 3046 3044 3043 3041 3040 3038 3037 3035 3033 3031 3029 3028 3026
3078 3077 3075 3074 3072 3071 3070 3069 3068 3067 3066 3065 3064 3063 3062 3061 3059 3058 3057 3055 3054 3053 3051 3049 3048 3046 3044 3043 3041 3040 3039 3037 3036 3034 3033 3031 3029 3027 3025 3023 3021 3019
3073 3072 3070 3069 3068 3066 3065 3064 3063 3062 3061 3060 3059 3058 3057 3056 3054 3053 3051 3050 3048 3047 3045 3044 3042 3040 3039 3037 3036 3034 3033 3031 3030 3029 3027 3025 3023 3021 3019 3017 3015 3013
3068 3067 3066 3064 3063 3062 3061 3060 3059 3058 3057 3056 3055 3054 3052 3051 3049 3048 3046 3045 3043 3042 3040 3039 3037 3035 3033 3032 3030 3029 3027 3026 3024 3023 3021 3019 3017 3016 3014 3011 3009 3007
3063 3062 3061 3060 3059 3057 3056 3055 3054 3053 3052 3051 3050 3049 3048 3046 3044 3043 3041 3040 3039 3037 3036 3034 3032 3030 3028 3026 3025 3023 3022 3020 3019 3017 3015 3014 3012 3009 3008 3006 3003 3001
3059 3058 3057 3056 3054 3053 3052 3051 3050 3049 3048 3047 3046 3044 3043 3041 3040 3038 3037 3036 3034 3033 3031 3029 3027 3025 3023 3021 3019 3017 3016 3014 3013 3011 3009 3007 3005 3003 3001 2999 2997 2995
3054 3053 3052 3051 3050 3049 3048 3046 3045 3044 3043 3042 3040 3039 3038 3037 3035 3034 3032 3031 3030 3028 3026 3024 3022 3020 3017 3016 3014 3011 3009 3008 3006 3005 3003 3001 2999 2997 2995 2992 2991 2988
3049 3048 3048 3047 3046 3045 3043 3042 3040 3039 3038 3037 3036 3035 3034 3032 3031 3029 3028 3026 3025 3023 3021 3019 3017 3014 3012 3010 3008 3006 3003 3001 3000 2998 2996 2994 2992 2990 2988 2986 2983 2981
3044 3044 3043 3042 3041 3040 3038 3037 3035 3034 3033 3032 3031 3030 3029 3028 3026 3024 3023 3021 3019 3018 3016 3014 3011 3009 3006 3004 3002 3000 2997 2995 2994 2992 2990 2988 2986 2983 2981 2979 2976 2974
3039 3039 3038 3037 3036 3035 3033 3032 3030 3029 3028 3027 3027 3025 3024 3023 3021 3020 3018 3016 3014 3012 3010 3008 3006 3003 3001 2999 2996 2994 2992 2990 2988 2986 2984 2982 2980 2977 2975 2972 2970 2967
3034 3034 3033 3032 3031 3029 3028 3027 3026 3025 3024 3023 3022 3021 3019 3018 3016 3015 3013 3011 3009 3007 3005 3003 3001 2998 2995 2993 2991 2988 2986 2984 2982 2980 2978 2976 2974 2971 2969 2966 2963 2960
3029 3028 3027 3026 3025 3024 3023 3022 3021 3020 3019 3018 3017 3016 3014 3013 3012 3010 3008 3006 3004 3002 3000 2998 2996 2993 2990 2988 2986 2983 2981 2979 2977 2975 2973 2971 2968 2965 2963 2960 2957 2954
3024 3023 3022 3021 3020 3019 3018 3017 3016 3015 3014 3013 3012 3011 3010 3008 3007 3005 3003 3001 2999 2997 2995 2993 2991 2988 2985 2983 2980 2978 2976 2973 2971 2969 2967 2965 2962 2959 2957 2954 2951 2947
3019 3019 3018 3017 3016 3015 3014 3013 3012 3011 3010 3009 3007 3006 3004 3003 3002 3000 2998 2996 2994 2992 2990 2988 2985 2982 2980 2978 2976 2973 2971 2968 2966 2964 2962 2959 2956 2954 2951 2948 2944 2941
3015 3014 3013 3012 3011 3010 3009 3008 3007 3006 3005 3003 3002 3000 2999 2998 2996 2995 2993 2991 2988 2986 2984 2982 2980 2977 2975 2973 2971 2968 2965 2963 2960 2958 2956 2953 2950 2947 2944 2941 2938 2934
3010 3009 3008 3007 3006 3005 3004 3003 3002 3001 2999 2998 2997 2995 2994 2992 2991 2989 2987 2985 2983 2981 2979 2976 2974 2973 2970 2968 2966 2963 2960 2957 2954 2952 2949 2946 2944 2940 2938 2935 2931 2927